BLY7464 EGKK-EGPH

Flight info

Callsign BLY7464
Flight time 1h 1m
Altitude 34000
Route LAM L10 BPK UN601 RIBEL DCT INPIP
Aircraft A320/M-SDE3FGHIRWY/LB1

Departure

Time 2026-05-07 21:06
Airport London Gatwick Airport (EGKK)

Arrival

Time 2026-05-07 22:07
Airport Edinburgh Airport (EGPH)
Time Latitude Longitude Altitude Speed Heading
2026-05-07 20:38 51.15481 -0.17031 205 ft 0 kts 348°
2026-05-07 20:52 51.15465 -0.17026 213 ft 4 kts 348°
2026-05-07 20:52 51.15439 -0.17017 211 ft 4 kts 348°
2026-05-07 20:52 51.15412 -0.17008 217 ft 4 kts 348°
2026-05-07 20:53 51.15411 -0.17008 217 ft 0 kts 348°
2026-05-07 20:56 51.15414 -0.17014 205 ft 1 kts 311°
2026-05-07 20:56 51.15418 -0.17032 215 ft 3 kts 288°
2026-05-07 20:56 51.15416 -0.17070 212 ft 4 kts 260°
2026-05-07 20:57 51.15407 -0.17126 205 ft 6 kts 248°
2026-05-07 20:57 51.15389 -0.17199 207 ft 8 kts 252°
2026-05-07 20:57 51.15378 -0.17261 214 ft 0 kts 253°
2026-05-07 20:57 51.15374 -0.17278 216 ft 4 kts 251°
2026-05-07 20:58 51.15357 -0.17343 209 ft 9 kts 232°
2026-05-07 20:58 51.15304 -0.17430 207 ft 14 kts 252°
2026-05-07 20:58 51.15282 -0.17602 208 ft 17 kts 258°
2026-05-07 20:58 51.15255 -0.17792 207 ft 18 kts 257°
2026-05-07 20:59 51.15226 -0.17993 210 ft 18 kts 257°
2026-05-07 20:59 51.15202 -0.18186 208 ft 17 kts 258°
2026-05-07 20:59 51.15182 -0.18384 207 ft 19 kts 257°
2026-05-07 20:59 51.15149 -0.18601 205 ft 21 kts 256°
2026-05-07 21:00 51.15117 -0.18831 208 ft 20 kts 259°
2026-05-07 21:00 51.15091 -0.19035 208 ft 18 kts 257°
2026-05-07 21:00 51.15063 -0.19234 205 ft 19 kts 257°
2026-05-07 21:00 51.15035 -0.19438 211 ft 19 kts 257°
2026-05-07 21:01 51.15007 -0.19633 205 ft 19 kts 257°
2026-05-07 21:01 51.14981 -0.19837 210 ft 18 kts 258°
2026-05-07 21:01 51.14953 -0.20044 212 ft 20 kts 258°
2026-05-07 21:01 51.14922 -0.20259 210 ft 20 kts 257°
2026-05-07 21:02 51.14892 -0.20471 208 ft 20 kts 258°
2026-05-07 21:02 51.14865 -0.20672 209 ft 19 kts 258°
2026-05-07 21:02 51.14835 -0.20892 205 ft 21 kts 257°
2026-05-07 21:02 51.14815 -0.21032 211 ft 18 kts 257°
2026-05-07 21:03 51.14779 -0.21226 207 ft 18 kts 257°
2026-05-07 21:03 51.14743 -0.21393 214 ft 14 kts 219°
2026-05-07 21:03 51.14655 -0.21360 214 ft 9 kts 147°
2026-05-07 21:03 51.14620 -0.21335 212 ft 0 kts 163°
2026-05-07 21:04 51.14617 -0.21334 211 ft 1 kts 163°
2026-05-07 21:04 51.14603 -0.21328 205 ft 3 kts 163°
2026-05-07 21:04 51.14567 -0.21306 209 ft 7 kts 152°
2026-05-07 21:04 51.14527 -0.21246 215 ft 9 kts 123°
2026-05-07 21:05 51.14524 -0.21137 206 ft 12 kts 79°
2026-05-07 21:05 51.14570 -0.20797 212 ft 64 kts 78°
2026-05-07 21:05 51.14718 -0.19692 213 ft 137 kts 77°
2026-05-07 21:05 51.14973 -0.17904 414 ft 175 kts 79°
2026-05-07 21:06 51.15211 -0.16041 1235 ft 175 kts 81°
2026-05-07 21:06 51.15445 -0.14159 2004 ft 174 kts 79°
2026-05-07 21:06 51.15719 -0.12174 2388 ft 193 kts 79°
2026-05-07 21:06 51.16027 -0.09981 2659 ft 211 kts 79°
2026-05-07 21:07 51.16390 -0.07594 3056 ft 229 kts 71°
2026-05-07 21:07 51.17198 -0.05409 3715 ft 236 kts 53°
2026-05-07 21:07 51.18220 -0.03345 4449 ft 239 kts 53°
2026-05-07 21:07 51.19258 -0.01215 4979 ft 252 kts 53°
2026-05-07 21:08 51.20361 0.01069 4923 ft 263 kts 53°
2026-05-07 21:08 51.21481 0.03393 4918 ft 265 kts 53°
2026-05-07 21:08 51.22605 0.05726 4910 ft 265 kts 53°
2026-05-07 21:08 51.23737 0.08075 5150 ft 268 kts 53°
2026-05-07 21:09 51.24748 0.10572 6042 ft 270 kts 65°
2026-05-07 21:09 51.25329 0.13433 6816 ft 274 kts 79°
2026-05-07 21:09 51.25679 0.16458 7543 ft 280 kts 79°
2026-05-07 21:09 51.26038 0.19540 8289 ft 284 kts 79°
2026-05-07 21:10 51.26403 0.22648 9042 ft 289 kts 79°
2026-05-07 21:10 51.26776 0.25825 9782 ft 294 kts 79°
2026-05-07 21:10 51.27193 0.29045 10439 ft 298 kts 72°
2026-05-07 21:10 51.28138 0.31990 11097 ft 301 kts 50°
2026-05-07 21:11 51.29711 0.34191 11762 ft 304 kts 29°
2026-05-07 21:11 51.31694 0.35358 11912 ft 304 kts
2026-05-07 21:11 51.35729 0.34017 12102 ft 299 kts 335°
2026-05-07 21:12 51.37654 0.32742 12103 ft 300 kts 336°
2026-05-07 21:12 51.39568 0.31493 12225 ft 303 kts 336°
2026-05-07 21:12 51.41522 0.30226 12932 ft 305 kts 336°
2026-05-07 21:12 51.43505 0.28939 13615 ft 309 kts 336°
2026-05-07 21:13 51.45507 0.27636 14207 ft 313 kts 336°
2026-05-07 21:13 51.47577 0.26286 14456 ft 331 kts 336°
2026-05-07 21:13 51.49769 0.24854 14673 ft 347 kts 336°
2026-05-07 21:13 51.52024 0.23380 15145 ft 353 kts 336°
2026-05-07 21:14 51.54314 0.21887 15715 ft 356 kts 336°
2026-05-07 21:14 51.56616 0.20388 16278 ft 359 kts 336°
2026-05-07 21:14 51.58948 0.18870 16853 ft 362 kts 336°
2026-05-07 21:14 51.61315 0.17327 17440 ft 364 kts 335°
2026-05-07 21:15 51.63563 0.15447 18004 ft 364 kts 322°
2026-05-07 21:15 51.65411 0.12837 18473 ft 365 kts 309°
2026-05-07 21:15 51.66900 0.09495 18828 ft 369 kts 300°
2026-05-07 21:15 51.68296 0.05989 19308 ft 373 kts 300°
2026-05-07 21:16 51.69707 0.02461 19806 ft 375 kts 300°
2026-05-07 21:16 51.71126 -0.01086 20299 ft 378 kts 301°
2026-05-07 21:16 51.72563 -0.04665 20778 ft 381 kts 301°
2026-05-07 21:16 51.74097 -0.08186 21235 ft 385 kts 308°
2026-05-07 21:17 51.75997 -0.11263 21688 ft 391 kts 318°
2026-05-07 21:17 51.78172 -0.13710 22136 ft 396 kts 327°
2026-05-07 21:17 51.80568 -0.15972 22578 ft 398 kts 327°
2026-05-07 21:17 51.82963 -0.18248 23060 ft 400 kts 327°
2026-05-07 21:18 51.85373 -0.20546 23519 ft 403 kts 327°
2026-05-07 21:18 51.87787 -0.22855 23908 ft 405 kts 327°
2026-05-07 21:18 51.90220 -0.25191 24284 ft 407 kts 327°
2026-05-07 21:18 51.92668 -0.27541 24656 ft 409 kts 327°
2026-05-07 21:19 51.95125 -0.29895 25029 ft 411 kts 327°
2026-05-07 21:19 51.97594 -0.32256 25395 ft 413 kts 327°
2026-05-07 21:19 52.00078 -0.34635 25759 ft 415 kts 327°
2026-05-07 21:19 52.02568 -0.37029 26125 ft 417 kts 327°
2026-05-07 21:20 52.05066 -0.39438 26475 ft 419 kts 327°
2026-05-07 21:20 52.07581 -0.41868 26860 ft 420 kts 326°
2026-05-07 21:20 52.10101 -0.44304 27225 ft 422 kts 326°
2026-05-07 21:20 52.12630 -0.46754 27567 ft 424 kts 326°
2026-05-07 21:21 52.15171 -0.49220 27922 ft 426 kts 326°
2026-05-07 21:21 52.17721 -0.51689 28269 ft 428 kts 326°
2026-05-07 21:21 52.20288 -0.54175 28617 ft 430 kts 326°
2026-05-07 21:21 52.22862 -0.56676 28962 ft 432 kts 326°
2026-05-07 21:22 52.25451 -0.59195 29295 ft 434 kts 326°
2026-05-07 21:22 52.28055 -0.61732 29635 ft 436 kts 326°
2026-05-07 21:22 52.30656 -0.64272 30045 ft 436 kts 326°
2026-05-07 21:22 52.33261 -0.66822 30486 ft 434 kts 326°
2026-05-07 21:23 52.35850 -0.69355 30948 ft 433 kts 326°
2026-05-07 21:23 52.38429 -0.71883 31354 ft 432 kts 326°
2026-05-07 21:23 52.40999 -0.74408 31772 ft 431 kts 326°
2026-05-07 21:23 52.43566 -0.76931 32177 ft 430 kts 326°
2026-05-07 21:24 52.46128 -0.79453 32597 ft 429 kts 326°
2026-05-07 21:24 52.48686 -0.81970 32999 ft 428 kts 326°
2026-05-07 21:24 52.51232 -0.84481 33401 ft 427 kts 326°
2026-05-07 21:24 52.53774 -0.86992 33841 ft 426 kts 326°
2026-05-07 21:25 52.56277 -0.89468 34044 ft 426 kts 326°
2026-05-07 21:25 52.58823 -0.91991 34069 ft 427 kts 325°
2026-05-07 21:25 52.63908 -0.97050 34048 ft 427 kts 325°
2026-05-07 21:26 52.69004 -1.02134 34045 ft 428 kts 325°
2026-05-07 21:26 52.74102 -1.07225 34059 ft 428 kts 325°
2026-05-07 21:27 52.79207 -1.12319 34060 ft 428 kts 326°
2026-05-07 21:27 52.84303 -1.17428 34061 ft 428 kts 325°
2026-05-07 21:28 52.89395 -1.22559 34063 ft 428 kts 325°
2026-05-07 21:28 52.94489 -1.27715 34063 ft 429 kts 325°
2026-05-07 21:29 52.99575 -1.32873 34064 ft 428 kts 325°
2026-05-07 21:29 53.04670 -1.38048 34066 ft 429 kts 325°
2026-05-07 21:30 53.09757 -1.43224 34072 ft 429 kts 325°
2026-05-07 21:30 53.14860 -1.48431 34063 ft 429 kts 325°
2026-05-07 21:31 53.19948 -1.53639 34071 ft 429 kts 325°
2026-05-07 21:31 53.25042 -1.58864 34072 ft 429 kts 325°
2026-05-07 21:32 53.30128 -1.64112 34049 ft 430 kts 325°
2026-05-07 21:32 53.35225 -1.69372 34046 ft 431 kts 325°
2026-05-07 21:33 53.40326 -1.74652 34047 ft 431 kts 325°
2026-05-07 21:33 53.45423 -1.79949 34043 ft 431 kts 325°
2026-05-07 21:34 53.50530 -1.85258 34046 ft 431 kts 325°
2026-05-07 21:34 53.55628 -1.90583 34060 ft 431 kts 325°
2026-05-07 21:35 53.60722 -1.95928 34059 ft 432 kts 325°
2026-05-07 21:35 53.65817 -2.01285 34055 ft 432 kts 325°
2026-05-07 21:36 53.70909 -2.06663 34053 ft 432 kts 325°
2026-05-07 21:36 53.76144 -2.11541 34047 ft 436 kts 335°
2026-05-07 21:37 53.81816 -2.15388 34043 ft 437 kts 335°
2026-05-07 21:37 53.87456 -2.19243 34041 ft 437 kts 335°
2026-05-07 21:38 53.93100 -2.23113 34042 ft 437 kts 335°
2026-05-07 21:38 53.98743 -2.26989 34053 ft 438 kts 335°
2026-05-07 21:39 54.03440 -2.30224 34045 ft 438 kts 335°
2026-05-07 21:39 54.09089 -2.34125 34035 ft 438 kts 335°
2026-05-07 21:40 54.14751 -2.38034 34035 ft 439 kts 335°
2026-05-07 21:40 54.20409 -2.41965 34034 ft 438 kts 335°
2026-05-07 21:41 54.26064 -2.45913 34035 ft 439 kts 335°
2026-05-07 21:41 54.31718 -2.49876 34025 ft 440 kts 335°
2026-05-07 21:42 54.37397 -2.53848 34022 ft 440 kts 335°
2026-05-07 21:42 54.43070 -2.57833 34020 ft 441 kts 335°
2026-05-07 21:43 54.48734 -2.61835 34030 ft 441 kts 335°
2026-05-07 21:43 54.54250 -2.65729 34026 ft 442 kts 335°
2026-05-07 21:44 54.59938 -2.69761 34035 ft 442 kts 334°
2026-05-07 21:44 54.65570 -2.73772 33727 ft 431 kts 334°
2026-05-07 21:45 54.68327 -2.75744 33299 ft 426 kts 334°
2026-05-07 21:45 54.71056 -2.77699 32850 ft 423 kts 334°
2026-05-07 21:45 54.73766 -2.79640 32376 ft 420 kts 334°
2026-05-07 21:45 54.76465 -2.81577 31882 ft 418 kts 334°
2026-05-07 21:46 54.79111 -2.83473 31448 ft 416 kts 334°
2026-05-07 21:46 54.81774 -2.85377 31022 ft 413 kts 334°
2026-05-07 21:46 54.84418 -2.87273 30592 ft 410 kts 334°
2026-05-07 21:46 54.87052 -2.89171 30193 ft 407 kts 334°
2026-05-07 21:47 54.89670 -2.91062 29530 ft 410 kts 334°
2026-05-07 21:47 54.92317 -2.92974 28815 ft 412 kts 334°
2026-05-07 21:47 54.94953 -2.94883 28111 ft 406 kts 334°
2026-05-07 21:47 54.97533 -2.96749 27451 ft 398 kts 334°
2026-05-07 21:48 55.00070 -2.98583 26791 ft 392 kts 334°
2026-05-07 21:48 55.02568 -3.00393 26141 ft 385 kts 334°
2026-05-07 21:48 55.05021 -3.02172 25507 ft 379 kts 334°
2026-05-07 21:48 55.07437 -3.03930 24847 ft 374 kts 333°
2026-05-07 21:49 55.09845 -3.05691 24124 ft 372 kts 333°
2026-05-07 21:49 55.12199 -3.07410 23623 ft 362 kts 333°
2026-05-07 21:49 55.14510 -3.09101 22924 ft 357 kts 333°
2026-05-07 21:49 55.16791 -3.10773 22209 ft 354 kts 333°
2026-05-07 21:50 55.19052 -3.12432 21508 ft 350 kts 333°
2026-05-07 21:50 55.21285 -3.14073 20801 ft 347 kts 333°
2026-05-07 21:50 55.23502 -3.15706 20130 ft 344 kts 333°
2026-05-07 21:50 55.25705 -3.17327 19481 ft 342 kts 333°
2026-05-07 21:51 55.27888 -3.18917 18825 ft 340 kts 336°
2026-05-07 21:51 55.30180 -3.19939 18206 ft 341 kts 349°
2026-05-07 21:51 55.32555 -3.20033 17520 ft 342 kts
2026-05-07 21:51 55.34909 -3.19644 16868 ft 339 kts
2026-05-07 21:52 55.37219 -3.19274 16251 ft 336 kts
2026-05-07 21:52 55.39537 -3.18911 15648 ft 332 kts
2026-05-07 21:52 55.41814 -3.18555 15065 ft 328 kts
2026-05-07 21:52 55.44075 -3.18202 14477 ft 325 kts
2026-05-07 21:53 55.46314 -3.17857 13929 ft 322 kts
2026-05-07 21:53 55.48534 -3.17514 13348 ft 318 kts
2026-05-07 21:53 55.50734 -3.17174 12716 ft 316 kts
2026-05-07 21:53 55.52910 -3.16834 12131 ft 312 kts
2026-05-07 21:54 55.55040 -3.16495 11750 ft 302 kts
2026-05-07 21:54 55.57086 -3.16167 11558 ft 286 kts
2026-05-07 21:54 55.59012 -3.15857 11425 ft 270 kts
2026-05-07 21:54 55.60850 -3.15563 11142 ft 261 kts
2026-05-07 21:55 55.62647 -3.15281 10776 ft 258 kts
2026-05-07 21:55 55.64427 -3.15003 10361 ft 255 kts
2026-05-07 21:55 55.66163 -3.14726 9968 ft 252 kts
2026-05-07 21:55 55.67891 -3.14018 9527 ft 252 kts 14°
2026-05-07 21:56 55.69556 -3.13127 9301 ft 249 kts 14°
2026-05-07 21:56 55.71204 -3.12247 9164 ft 252 kts 14°
2026-05-07 21:56 55.72909 -3.11340 8640 ft 257 kts 14°
2026-05-07 21:56 55.74626 -3.10426 8154 ft 257 kts 14°
2026-05-07 21:57 55.76335 -3.09511 7682 ft 255 kts 14°
2026-05-07 21:57 55.78030 -3.08601 7258 ft 253 kts 15°
2026-05-07 21:57 55.79701 -3.07703 6866 ft 249 kts 15°
2026-05-07 21:57 55.81370 -3.06803 6456 ft 247 kts 15°
2026-05-07 21:58 55.83011 -3.05915 6039 ft 245 kts 15°
2026-05-07 21:58 55.84636 -3.05038 5619 ft 243 kts 14°
2026-05-07 21:58 55.86279 -3.04425 5202 ft 241 kts
2026-05-07 21:58 55.87902 -3.03909 4801 ft 239 kts
2026-05-07 21:59 55.89529 -3.03384 4380 ft 236 kts
2026-05-07 21:59 55.91164 -3.02854 4004 ft 233 kts
2026-05-07 21:59 55.92728 -3.02347 3998 ft 227 kts
2026-05-07 21:59 55.94228 -3.01941 3989 ft 209 kts 360°
2026-05-07 22:00 55.95655 -3.01971 3979 ft 204 kts 349°
2026-05-07 22:00 55.97027 -3.02287 3850 ft 200 kts 347°
2026-05-07 22:00 55.98409 -3.02606 3717 ft 200 kts 347°
2026-05-07 22:00 55.99788 -3.02922 3586 ft 200 kts 348°
2026-05-07 22:01 56.01163 -3.03277 3466 ft 197 kts 340°
2026-05-07 22:01 56.02344 -3.04327 3325 ft 183 kts 316°
2026-05-07 22:01 56.03174 -3.05907 3197 ft 167 kts 296°
2026-05-07 22:01 56.03639 -3.07717 3092 ft 156 kts 279°
2026-05-07 22:02 56.03773 -3.09595 3020 ft 150 kts 263°
2026-05-07 22:02 56.03572 -3.11543 3005 ft 148 kts 247°
2026-05-07 22:02 56.03133 -3.13096 2977 ft 146 kts 238°
2026-05-07 22:02 56.02610 -3.14655 2846 ft 146 kts 237°
2026-05-07 22:03 56.02096 -3.16187 2676 ft 145 kts 237°
2026-05-07 22:03 56.01579 -3.17728 2495 ft 144 kts 237°
2026-05-07 22:03 56.01066 -3.19253 2303 ft 142 kts 236°
2026-05-07 22:03 56.00557 -3.20770 2120 ft 141 kts 236°
2026-05-07 22:04 56.00053 -3.22268 1917 ft 140 kts 235°
2026-05-07 22:04 55.99553 -3.23752 1738 ft 138 kts 235°
2026-05-07 22:04 55.99064 -3.25205 1544 ft 135 kts 235°
2026-05-07 22:04 55.98580 -3.26642 1356 ft 135 kts 234°
2026-05-07 22:05 55.98096 -3.28076 1160 ft 134 kts 235°
2026-05-07 22:05 55.97614 -3.29506 971 ft 134 kts 237°
2026-05-07 22:05 55.97132 -3.30933 779 ft 134 kts 236°
2026-05-07 22:05 55.96659 -3.32358 523 ft 135 kts 237°
2026-05-07 22:06 55.96183 -3.33767 409 ft 135 kts 236°
2026-05-07 22:06 55.95706 -3.35186 222 ft 132 kts 237°
2026-05-07 22:06 55.95230 -3.36581 109 ft 124 kts 235°
2026-05-07 22:06 55.94844 -3.37683 112 ft 87 kts 241°
2026-05-07 22:07 55.94596 -3.38422 112 ft 62 kts 238°
2026-05-07 22:07 55.94450 -3.38860 116 ft 24 kts 243°
2026-05-07 22:07 55.94375 -3.38943 119 ft 14 kts 172°
2026-05-07 22:07 55.94309 -3.38887 119 ft 9 kts 144°
2026-05-07 22:08 55.94292 -3.38767 115 ft 13 kts 69°
2026-05-07 22:08 55.94339 -3.38619 115 ft 15 kts 59°
2026-05-07 22:08 55.94402 -3.38432 113 ft 20 kts 58°
2026-05-07 22:08 55.94479 -3.38208 111 ft 23 kts 59°
2026-05-07 22:09 55.94542 -3.38018 111 ft 14 kts 59°
2026-05-07 22:09 55.94596 -3.37861 112 ft 16 kts 58°
2026-05-07 22:09 55.94655 -3.37690 114 ft 17 kts 58°
2026-05-07 22:09 55.94714 -3.37518 109 ft 16 kts 58°
2026-05-07 22:10 55.94759 -3.37387 109 ft 13 kts 58°
2026-05-07 22:10 55.94815 -3.37221 103 ft 15 kts 59°
2026-05-07 22:10 55.94869 -3.37062 105 ft 14 kts 59°
2026-05-07 22:10 55.94915 -3.36926 104 ft 10 kts 59°
2026-05-07 22:11 55.94908 -3.36810 104 ft 10 kts 122°
2026-05-07 22:11 55.94916 -3.36686 105 ft 11 kts 61°
2026-05-07 22:11 55.94928 -3.36616 107 ft 5 kts 109°
2026-05-07 22:11 55.94901 -3.36571 106 ft 3 kts 145°
2026-05-07 22:12 55.94891 -3.36560 106 ft 2 kts 150°
2026-05-07 22:12 55.94879 -3.36547 106 ft 0 kts 149°
2026-05-07 22:12 55.94878 -3.36547 107 ft 0 kts 149°